FW3914 Weather Reports


Display with metric or nautical units.
time (UTC)temp
F
wind
direction
speed
MPH
gust
MPH
rain 1hr
in
rain 24hr
in
rain mn
in
humidity
%
barometer
mb
20260905081150 82 238 0.0 2.0 0.00 0.00 0.00 75 1013.2
20260905080649 82 250 1.0 2.0 0.00 0.00 0.00 74 1013.3
20260905080149 82 151 0.0 2.0 0.00 0.00 0.00 74 1013.2
20260905075649 82 176 2.0 3.0 0.00 0.00 0.00 74 1013.4
20260905075148 82 136 0.0 3.0 0.00 0.00 0.00 73 1013.3
20260905074647 82 252 0.0 3.0 0.00 0.00 0.00 73 1013.4
20260905074143 82 231 1.0 3.0 0.00 0.00 0.00 73 1013.3
20260905073638 82 235 0.0 2.0 0.00 0.00 0.00 73 1013.4
20260905073134 83 234 2.0 2.0 0.00 0.00 0.00 73 1013.3
20260905072633 83 192 2.0 4.0 0.00 0.00 0.00 72 1013.5
20260905072128 83 255 1.0 4.0 0.00 0.00 0.00 72 1013.6
20260905071625 83 133 3.0 3.0 0.00 0.00 0.00 71 1013.4
20260905071120 83 166 3.0 3.0 0.00 0.00 0.00 71 1013.5
20260905070616 83 190 3.0 3.0 0.00 0.00 0.00 71 1013.7
20260905070112 84 277 2.0 2.0 0.00 0.00 0.00 71 1013.8
20260905065609 84 262 2.0 3.0 0.00 0.00 0.00 71 1013.8
20260905065104 84 212 1.0 3.0 0.00 0.00 0.00 70 1013.8
20260905064559 84 203 1.0 3.0 0.00 0.00 0.00 70 1013.9
20260905064055 84 194 2.0 3.0 0.00 0.00 0.00 70 1014.0
20260905063553 85 187 0.0 3.0 0.00 0.00 0.00 69 1013.8
20260905063050 85 269 0.0 3.0 0.00 0.00 0.00 69 1013.9
20260905062545 85 248 0.0 3.0 0.00 0.00 0.00 69 1013.9
20260905062044 85 242 1.0 3.0 0.00 0.00 0.00 69 1013.8
20260905061540 85 269 0.0 2.0 0.00 0.00 0.00 68 1014.0
20260905061039 85 215 2.0 4.0 0.00 0.00 0.00 68 1013.9
20260905060535 85 206 2.0 3.0 0.00 0.00 0.00 68 1013.9
20260905060031 85 215 2.0 3.0 0.00 0.00 0.00 68 1013.8
20260905055529 85 253 2.0 2.0 0.00 0.00 0.00 68 1013.9
20260905055024 85 251 2.0 3.0 0.00 0.00 0.00 67 1013.7
20260905054520 85 250 1.0 2.0 0.00 0.00 0.00 67 1013.7
20260905054015 85 246 2.0 2.0 0.00 0.00 0.00 67 1013.6
20260905053509 86 247 1.0 4.0 0.00 0.00 0.00 66 1013.6
20260905053005 86 233 3.0 4.0 0.00 0.00 0.00 66 1013.5
20260905052504 86 225 4.0 5.0 0.00 0.00 0.00 66 1013.5
20260905052004 86 235 2.0 3.0 0.00 0.00 0.00 66 1013.6
20260905051500 86 239 0.0 3.0 0.00 0.00 0.00 66 1013.5
20260905050957 86 229 2.0 3.0 0.00 0.00 0.00 66 1013.6
20260905050452 86 223 2.0 3.0 0.00 0.00 0.00 66 1013.4
20260905045948 86 212 1.0 3.0 0.00 0.00 0.00 65 1013.5
20260905045443 86 212 0.0 3.0 0.00 0.00 0.00 65 1013.5
20260905044939 86 220 2.0 4.0 0.00 0.00 0.00 65 1013.5
20260905044433 86 185 1.0 4.0 0.00 0.00 0.00 65 1013.4
20260905043933 86 205 1.0 4.0 0.00 0.00 0.00 64 1013.5
20260905043432 86 252 0.0 3.0 0.00 0.00 0.00 65 1013.5
20260905042927 86 176 2.0 4.0 0.00 0.00 0.00 64 1013.7
20260905042421 87 262 1.0 3.0 0.00 0.00 0.00 64 1013.6
20260905041916 87 208 1.0 4.0 0.00 0.00 0.00 64 1013.4
20260905041413 87 193 1.0 4.0 0.00 0.00 0.00 64 1013.5
20260905040912 87 243 2.0 4.0 0.00 0.00 0.00 64 1013.5
20260905040407 87 180 1.0 3.0 0.00 0.00 0.00 63 1013.3
20260905035906 87 193 2.0 4.0 0.00 0.00 0.00 63 1013.6
20260905035401 87 200 2.0 4.0 0.00 0.00 0.00 63 1013.5
20260905034858 87 242 1.0 3.0 0.00 0.00 0.00 63 1013.5
20260905034353 87 201 1.0 3.0 0.00 0.00 0.00 62 1013.5
20260905033851 87 168 2.0 3.0 0.00 0.00 0.00 62 1013.6
20260905033348 88 176 0.0 3.0 0.00 0.00 0.00 61 1013.7
20260905032846 88 246 1.0 3.0 0.00 0.00 0.00 61 1013.7
20260905032342 88 250 1.0 4.0 0.00 0.00 0.00 61 1013.6
20260905031837 88 211 2.0 4.0 0.00 0.00 0.00 61 1013.3
20260905031333 88 220 3.0 4.0 0.00 0.00 0.00 61 1013.5
20260905030828 89 201 2.0 5.0 0.00 0.00 0.00 60 1013.5
20260905030324 89 243 2.0 4.0 0.00 0.00 0.00 60 1013.1
20260905025823 89 215 1.0 4.0 0.00 0.00 0.00 60 1013.2
20260905025318 89 205 2.0 4.0 0.00 0.00 0.00 60 1013.2
20260905024815 89 269 0.0 3.0 0.00 0.00 0.00 59 1013.2
20260905024310 89 264 1.0 4.0 0.00 0.00 0.00 60 1013.3
20260905023805 89 249 3.0 5.0 0.00 0.00 0.00 60 1013.2
20260905023300 89 275 2.0 3.0 0.00 0.00 0.00 59 1013.1
20260905022759 89 310 2.0 4.0 0.00 0.00 0.00 59 1013.0
20260905022254 90 245 2.0 3.0 0.00 0.00 0.00 59 1013.0
20260905021749 90 280 2.0 3.0 0.00 0.00 0.00 58 1012.8
20260905021244 90 306 1.0 4.0 0.00 0.00 0.00 58 1012.8
20260905020744 90 315 1.0 3.0 0.00 0.00 0.00 57 1012.6
20260905020239 91 2 2.0 3.0 0.00 0.00 0.00 57 1012.4
20260905015738 91 260 2.0 4.0 0.00 0.00 0.00 57 1012.7
20260905015232 91 259 1.0 4.0 0.00 0.00 0.00 56 1012.6
20260905014731 91 255 0.0 4.0 0.00 0.00 0.00 56 1012.5
20260905014227 91 209 0.0 4.0 0.00 0.00 0.00 56 1012.3
20260905013723 91 280 2.0 3.0 0.00 0.00 0.00 55 1012.2
20260905013219 91 268 2.0 3.0 0.00 0.00 0.00 55 1012.2
20260905012714 92 232 1.0 4.0 0.00 0.00 0.00 55 1012.3
20260905012210 92 316 0.0 4.0 0.00 0.00 0.00 55 1012.3
20260905011706 92 236 1.0 3.0 0.00 0.00 0.00 55 1012.3
20260905011202 92 249 2.0 4.0 0.00 0.00 0.00 55 1012.3
20260905010701 92 307 2.0 5.0 0.00 0.00 0.00 55 1012.2
20260905010157 93 287 2.0 4.0 0.00 0.00 0.00 54 1011.9
20260905005654 93 344 1.0 4.0 0.00 0.00 0.00 54 1011.9
20260905005149 93 319 3.0 4.0 0.00 0.00 0.00 54 1011.9
20260905004643 93 76 2.0 5.0 0.00 0.00 0.00 53 1012.0
20260905004138 93 13 2.0 5.0 0.00 0.00 0.00 52 1012.0
20260905003634 94 288 2.0 4.0 0.00 0.00 0.00 51 1011.9
20260905003130 94 285 1.0 9.0 0.00 0.00 0.00 51 1012.0
20260905002625 95 191 1.0 10.0 0.00 0.00 0.00 50 1011.9
20260905002119 95 51 2.0 4.0 0.00 0.00 0.00 46 1011.7
20260905001615 95 266 2.0 4.0 0.00 0.00 0.00 46 1011.6
20260905001109 96 204 3.0 8.0 0.00 0.00 0.00 45 1011.6
20260905000604 96 235 3.0 5.0 0.00 0.00 0.00 45 1011.6
20260905000100 97 245 2.0 5.0 0.00 0.00 0.00 44 1011.6
20260904235600 98 223 3.0 5.0 0.00 0.00 0.00 44 1011.6
20260904235059 98 286 1.0 5.0 0.00 0.00 0.00 44 1011.5
20260904234554 98 192 4.0 7.0 0.00 0.00 0.00 43 1011.7
20260904234050 99 230 5.0 7.0 0.00 0.00 0.00 42 1011.8
20260904233545 100 279 2.0 4.0 0.00 0.00 0.00 42 1011.6
20260904233041 100 265 2.0 5.0 0.00 0.00 0.00 43 1011.6
20260904232538 100 294 2.0 5.0 0.00 0.00 0.00 42 1011.2
20260904232034 100 215 4.0 9.0 0.00 0.00 0.00 43 1011.8
20260904231529 100 285 2.0 6.0 0.00 0.00 0.00 42 1011.4
20260904231024 100 223 3.0 6.0 0.00 0.00 0.00 43 1011.6
20260904230523 100 239 3.0 8.0 0.00 0.00 0.00 42 1011.5
20260904230019 100 213 3.0 8.0 0.00 0.00 0.00 42 1011.6
20260904225517 100 312 2.0 7.0 0.00 0.00 0.00 43 1011.6
20260904225016 99 296 5.0 12.0 0.00 0.00 0.00 44 1011.8
20260904224511 98 307 2.0 7.0 0.00 0.00 0.00 45 1011.6
20260904224011 98 13 3.0 11.0 0.00 0.00 0.00 46 1011.7
20260904223505 99 300 3.0 6.0 0.00 0.00 0.00 45 1011.8
20260904223001 100 211 3.0 7.0 0.00 0.00 0.00 44 1011.9
20260904222456 100 55 2.0 6.0 0.00 0.00 0.00 44 1011.9
20260904221950 99 251 2.0 7.0 0.00 0.00 0.00 46 1011.8
20260904221445 100 193 2.0 10.0 0.00 0.00 0.00 45 1011.8
20260904220940 101 247 4.0 7.0 0.00 0.00 0.00 44 1011.7
20260904220440 100 269 4.0 11.0 0.00 0.00 0.00 45 1011.7
20260904215935 102 283 4.0 6.0 0.00 0.00 0.00 44 1012.0
20260904215430 103 3 2.0 5.0 0.00 0.00 0.00 43 1011.9
20260904214926 102 330 3.0 9.0 0.00 0.00 0.00 43 1011.9
20260904214421 101 314 4.0 7.0 0.00 0.00 0.00 45 1012.0
20260904213921 101 98 4.0 9.0 0.00 0.00 0.00 45 1012.0
20260904213415 102 320 3.0 7.0 0.00 0.00 0.00 43 1012.1
20260904212911 103 251 2.0 8.0 0.00 0.00 0.00 44 1012.0
20260904212410 103 233 4.0 7.0 0.00 0.00 0.00 42 1012.0
20260904211906 103 201 6.0 9.0 0.00 0.00 0.00 42 1012.2
20260904211401 103 233 3.0 12.0 0.00 0.00 0.00 43 1012.2
20260904210856 102 204 3.0 7.0 0.00 0.00 0.00 42 1012.3
20260904210355 102 324 6.0 10.0 0.00 0.00 0.00 43 1012.4
20260904205852 103 244 3.0 8.0 0.00 0.00 0.00 42 1012.4
20260904205347 103 261 4.0 5.0 0.00 0.00 0.00 44 1012.4
20260904204844 101 271 3.0 10.0 0.00 0.00 0.00 44 1012.4
20260904204339 103 163 2.0 7.0 0.00 0.00 0.00 42 1012.5
20260904203836 102 254 3.0 7.0 0.00 0.00 0.00 44 1012.6
20260904203332 102 211 5.0 9.0 0.00 0.00 0.00 43 1012.8
20260904202827 102 352 5.0 12.0 0.00 0.00 0.00 43 1012.7
20260904202323 100 186 3.0 11.0 0.00 0.00 0.00 44 1012.8
20260904201819 101 232 5.0 9.0 0.00 0.00 0.00 43 1012.8
20260904201319 101 239 4.0 8.0 0.00 0.00 0.00 44 1013.0
20260904200814 100 166 6.0 7.0 0.00 0.00 0.00 43 1013.2
20260904200308 100 254 5.0 10.0 0.00 0.00 0.00 44 1013.0
20260904195808 100 243 6.0 14.0 0.00 0.00 0.00 46 1013.1
20260904195306 100 220 5.0 7.0 0.00 0.00 0.00 44 1013.3
20260904194801 99 214 2.0 9.0 0.00 0.00 0.00 46 1013.3
20260904194300 99 223 4.0 9.0 0.00 0.00 0.00 48 1013.3
20260904193755 100 202 4.0 9.0 0.00 0.00 0.00 46 1013.5
20260904193251 99 189 4.0 10.0 0.00 0.00 0.00 46 1013.5
20260904192746 100 238 5.0 7.0 0.00 0.00 0.00 46 1013.5
20260904192241 100 250 4.0 10.0 0.00 0.00 0.00 47 1013.6
20260904191738 98 188 4.0 7.0 0.00 0.00 0.00 47 1013.5
20260904191234 99 39 3.0 8.0 0.00 0.00 0.00 47 1013.7
20260904190730 99 190 2.0 7.0 0.00 0.00 0.00 47 1013.5
20260904190226 99 265 5.0 9.0 0.00 0.00 0.00 47 1013.7
20260904185722 98 219 3.0 9.0 0.00 0.00 0.00 48 1013.8
20260904185222 98 158 2.0 11.0 0.00 0.00 0.00 49 1013.9
20260904184721 98 262 3.0 10.0 0.00 0.00 0.00 48 1013.9
20260904184217 98 189 5.0 7.0 0.00 0.00 0.00 47 1013.9
20260904183712 99 268 3.0 7.0 0.00 0.00 0.00 48 1014.2
20260904183207 98 282 2.0 6.0 0.00 0.00 0.00 49 1014.2
20260904182702 98 330 4.0 8.0 0.00 0.00 0.00 47 1014.2
20260904182157 97 276 2.0 9.0 0.00 0.00 0.00 50 1014.3
20260904181653 97 329 1.0 8.0 0.00 0.00 0.00 48 1014.3
20260904181152 97 1 2.0 7.0 0.00 0.00 0.00 49 1014.4
20260904180648 98 238 2.0 4.0 0.00 0.00 0.00 49 1014.7
20260904180143 96 240 4.0 7.0 0.00 0.00 0.00 50 1014.6
20260904175642 96 6 1.0 8.0 0.00 0.00 0.00 52 1014.5
20260904175141 96 245 4.0 5.0 0.00 0.00 0.00 54 1014.4
20260904174635 95 212 3.0 6.0 0.00 0.00 0.00 52 1014.7
20260904174132 95 178 4.0 7.0 0.00 0.00 0.00 52 1014.8
20260904173627 95 358 1.0 6.0 0.00 0.00 0.00 53 1014.7
20260904173117 95 227 3.0 7.0 0.00 0.00 0.00 54 1014.9
20260904172613 95 114 1.0 9.0 0.00 0.00 0.00 54 1015.0
20260904172112 96 193 4.0 7.0 0.00 0.00 0.00 52 1015.0
20260904171607 95 183 1.0 10.0 0.00 0.00 0.00 55 1015.0
20260904171103 94 237 3.0 5.0 0.00 0.00 0.00 57 1015.2
20260904170558 93 9 2.0 6.0 0.00 0.00 0.00 57 1015.1
20260904170054 93 242 4.0 6.0 0.00 0.00 0.00 58 1015.1
20260904165553 93 274 2.0 11.0 0.00 0.00 0.00 58 1015.2
20260904165052 92 18 3.0 6.0 0.00 0.00 0.00 59 1015.1
20260904164547 92 221 5.0 8.0 0.00 0.00 0.00 60 1015.6
20260904164043 93 266 4.0 11.0 0.00 0.00 0.00 59 1015.3
20260904163543 93 259 3.0 7.0 0.00 0.00 0.00 59 1015.2
20260904163038 92 269 4.0 7.0 0.00 0.00 0.00 62 1015.2
20260904162533 92 241 2.0 11.0 0.00 0.00 0.00 61 1015.2
20260904162028 93 235 3.0 7.0 0.00 0.00 0.00 61 1015.3
20260904161523 92 151 3.0 6.0 0.00 0.00 0.00 61 1015.0
20260904161019 92 256 0.0 5.0 0.00 0.00 0.00 64 1015.1
20260904160513 92 263 3.0 9.0 0.00 0.00 0.00 63 1015.2
20260904160010 92 215 3.0 5.0 0.00 0.00 0.00 63 1015.1
20260904155509 91 223 3.0 7.0 0.00 0.00 0.00 65 1015.5
20260904155008 91 225 3.0 7.0 0.00 0.00 0.00 64 1015.3
20260904154502 90 267 2.0 8.0 0.00 0.00 0.00 67 1015.3
20260904153957 90 186 3.0 6.0 0.00 0.00 0.00 68 1015.1
20260904153452 90 244 4.0 8.0 0.00 0.00 0.00 69 1015.1
20260904152948 89 244 2.0 5.0 0.00 0.00 0.00 71 1015.1
20260904152444 89 150 5.0 9.0 0.00 0.00 0.00 71 1015.0
20260904151943 89 271 2.0 6.0 0.00 0.00 0.00 71 1015.1
20260904151439 89 225 3.0 5.0 0.00 0.00 0.00 74 1015.1
20260904150933 88 230 3.0 6.0 0.00 0.00 0.00 73 1015.1
20260904150428 88 187 2.0 6.0 0.00 0.00 0.00 74 1014.9
20260904145926 87 259 1.0 8.0 0.00 0.00 0.00 75 1015.0
20260904145423 88 308 3.0 5.0 0.00 0.00 0.00 76 1014.9
20260904144918 87 241 1.0 7.0 0.00 0.00 0.00 78 1015.1
20260904144413 86 199 4.0 8.0 0.00 0.00 0.00 79 1015.0
20260904143909 86 200 5.0 9.0 0.00 0.00 0.00 79 1014.9
20260904143405 86 143 6.0 8.0 0.00 0.00 0.00 80 1015.1
20260904142902 85 227 3.0 6.0 0.00 0.00 0.00 82 1015.0
20260904142358 84 201 3.0 8.0 0.00 0.00 0.00 83 1015.0
20260904141857 84 260 3.0 7.0 0.00 0.00 0.00 84 1015.0
20260904141353 84 202 1.0 7.0 0.00 0.00 0.00 85 1015.0
20260904140849 83 210 4.0 6.0 0.00 0.00 0.00 85 1015.3
20260904140343 82 198 1.0 6.0 0.00 0.00 0.00 87 1015.1
20260904135843 81 210 3.0 7.0 0.00 0.00 0.00 88 1015.1
20260904135337 82 192 2.0 7.0 0.00 0.00 0.00 88 1015.0
20260904134834 82 145 2.0 6.0 0.00 0.00 0.00 88 1015.0
20260904134333 82 160 3.0 5.0 0.00 0.00 0.00 88 1014.9
20260904133828 81 203 3.0 5.0 0.00 0.00 0.00 88 1014.7
20260904133324 81 239 2.0 5.0 0.00 0.00 0.00 89 1014.7
20260904132823 80 269 0.0 6.0 0.00 0.00 0.00 91 1014.9
20260904132319 80 228 3.0 6.0 0.00 0.00 0.00 91 1014.6
20260904131818 80 88 2.0 5.0 0.00 0.00 0.00 91 1014.6
20260904131313 79 250 4.0 7.0 0.00 0.00 0.00 91 1014.7
20260904130808 79 216 1.0 7.0 0.00 0.00 0.00 91 1014.5
20260904130307 79 235 2.0 6.0 0.00 0.00 0.00 92 1014.4
20260904125803 79 195 0.0 5.0 0.00 0.00 0.00 92 1014.5
20260904125258 78 263 1.0 7.0 0.00 0.00 0.00 93 1014.5
20260904124753 78 194 3.0 5.0 0.00 0.00 0.00 94 1014.4
20260904124250 78 278 2.0 4.0 0.00 0.00 0.00 94 1014.3
20260904123749 77 279 3.0 4.0 0.00 0.00 0.00 95 1014.2
20260904123245 77 198 2.0 3.0 0.00 0.00 0.00 95 1014.3
20260904122740 77 177 2.0 5.0 0.00 0.00 0.00 95 1014.5
20260904122234 77 319 2.0 3.0 0.00 0.00 0.00 95 1014.4
20260904121729 77 246 2.0 3.0 0.00 0.00 0.00 95 1014.4
20260904121225 77 245 1.0 3.0 0.00 0.00 0.00 95 1014.3
20260904120721 77 343 0.0 4.0 0.00 0.00 0.00 94 1014.5
20260904120217 77 264 2.0 3.0 0.00 0.00 0.00 94 1014.3
20260904115712 77 258 1.0 3.0 0.00 0.00 0.00 94 1014.3
20260904115212 77 316 0.0 3.0 0.00 0.00 0.00 94 1014.3
20260904114707 77 180 1.0 4.0 0.00 0.00 0.00 94 1014.2
20260904114207 77 211 3.0 6.0 0.00 0.00 0.00 94 1014.0
20260904113702 77 186 2.0 3.0 0.00 0.00 0.00 94 1013.9
20260904113201 77 239 3.0 5.0 0.00 0.00 0.00 94 1013.9
20260904112656 77 87 2.0 3.0 0.00 0.00 0.00 93 1014.0
20260904112152 77 144 0.0 3.0 0.00 0.00 0.00 93 1014.0
20260904111647 77 235 2.0 5.0 0.00 0.00 0.00 93 1013.8
20260904111143 77 155 2.0 4.0 0.00 0.00 0.00 93 1014.0
20260904110638 77 194 2.0 5.0 0.00 0.00 0.00 93 1013.8
20260904110137 77 239 2.0 3.0 0.00 0.00 0.00 93 1013.7
20260904105632 77 217 2.0 5.0 0.00 0.00 0.00 92 1013.9
20260904105127 77 310 2.0 4.0 0.00 0.00 0.00 92 1013.7
20260904104623 77 207 1.0 3.0 0.00 0.00 0.00 92 1013.8
20260904104118 77 273 0.0 4.0 0.00 0.00 0.00 92 1013.9
20260904103614 77 331 1.0 3.0 0.00 0.00 0.00 91 1013.7
20260904103110 77 257 2.0 3.0 0.00 0.00 0.00 91 1013.6
20260904102606 77 303 0.0 3.0 0.00 0.00 0.00 91 1013.7
20260904102101 77 226 1.0 3.0 0.00 0.00 0.00 91 1013.4
20260904101557 77 282 0.0 3.0 0.00 0.00 0.00 90 1013.7
20260904101052 77 118 2.0 4.0 0.00 0.00 0.00 90 1013.7
20260904100549 77 308 1.0 3.0 0.00 0.00 0.00 90 1013.5
20260904100043 77 321 0.0 3.0 0.00 0.00 0.00 90 1013.6
20260904095538 77 281 1.0 2.0 0.00 0.00 0.00 89 1013.5
20260904095033 77 132 2.0 5.0 0.00 0.00 0.00 89 1013.5
20260904094528 77 252 1.0 3.0 0.00 0.00 0.00 89 1013.5
20260904094023 77 258 2.0 4.0 0.00 0.00 0.00 89 1013.6
20260904093520 77 220 2.0 3.0 0.00 0.00 0.00 89 1013.6
20260904093015 77 277 1.0 2.0 0.00 0.00 0.00 88 1013.7
20260904092510 77 279 2.0 2.0 0.00 0.00 0.00 88 1013.7
20260904092007 77 160 3.0 4.0 0.00 0.00 0.00 88 1013.6
20260904091503 77 239 2.0 3.0 0.00 0.00 0.00 88 1013.5
20260904091002 77 232 0.0 3.0 0.00 0.00 0.00 88 1013.7
20260904090458 77 226 2.0 3.0 0.00 0.00 0.00 88 1013.6
20260904085957 77 224 1.0 3.0 0.00 0.00 0.00 88 1013.4
20260904085453 77 198 2.0 3.0 0.00 0.00 0.00 87 1013.6
20260904084952 77 194 1.0 3.0 0.00 0.00 0.00 87 1013.6
20260904084449 77 226 0.0 3.0 0.00 0.00 0.00 87 1013.5
20260904083944 77 202 0.0 5.0 0.00 0.00 0.00 86 1013.6
20260904083441 77 225 2.0 3.0 0.00 0.00 0.00 86 1013.5
20260904082936 78 216 2.0 4.0 0.00 0.00 0.00 86 1013.3
20260904082431 78 244 3.0 4.0 0.00 0.00 0.00 86 1013.2
20260904081926 78 233 2.0 5.0 0.00 0.00 0.00 86 1013.4
20260904081422 78 197 0.0 3.0 0.00 0.00 0.00 85 1013.4